Regional Weather Roundup
Issued by NWS

Home | Current Version | Previous Version | Text Only | Print | Product List | Glossary Off
Versions: 1 2 3 4 5 6 7 8 9 10 11 12 13 14 15 16 17 18 19 20 21 22 23 24 25 26 27 28 29 30 31 32 33 34 35 36 37 38 39 40 41 42 43 44 45 46 47 48 49 50

068
ASUS45 KCYS 211910
RWRWY

WYOMING REGIONAL WEATHER ROUNDUP
NATIONAL WEATHER SERVICE CHEYENNE WY
100 PM MDT THU SEP 21 2017

NOTE:  "FAIR" INDICATES FEW OR NO CLOUDS BELOW 12,000 FEET
WITH NO SIGNIFICANT WEATHER AND/OR OBSTRUCTIONS TO VISIBILITY.

WYZ001-212000-
YELLOWSTONE NATIONAL PARK

CITY           SKY/WX    TMP DP  RH WIND       PRES   REMARKS
LK YELLOWSTONE NOT AVBL
W YELLOWSTONE  NOT AVBL

$$
WYZ002>013-054>058-071-098>099-212000-
NORTHERN WYOMING

CITY           SKY/WX    TMP DP  RH WIND       PRES   REMARKS
JACKSON        CLOUDY    38  35  89 CALM      29.82F
CODY           LGT RAIN  42  39  89 N12       29.83S
GREYBULL       FAIR      55  43  63 NW18G25   29.76R
WORLAND        CLOUDY    56  43  61 N10       29.75R
SHERIDAN       CLOUDY    54  42  64 NW6       29.81R
BUFFALO        CLOUDY    55  39  54 N9        29.82R
GILLETTE       FAIR      61  40  45 NE8G17    29.78R
HULETT         FAIR      63  37  39 N8        29.78R
NEWCASTLE      FAIR      72  32  23 NW5       29.73S

$$
WYZ014>020-022>026-101>103-212000-
CENTRAL WYOMING

CITY           SKY/WX    TMP DP  RH WIND       PRES   REMARKS
BIG PINEY      CLOUDY    59  37  44 SW12      29.77F
PINEDALE       CLOUDY    54  36  50 S6        29.80F
DUBOIS         DRIZZLE   41  36  81 NW8       29.79S
LANDER           N/A    N/A N/A N/A MISG      29.69F
RIVERTON       FAIR      61  38  42 N7        29.71F
CASPER         FAIR      65  35  33 VRB7      29.74F
DOUGLAS        FAIR      78  29  16 MISG      29.70F

$$
WYZ021-027>030-104>119-212000-
SOUTHERN WYOMING

CITY           SKY/WX    TMP DP  RH WIND       PRES   REMARKS
EVANSTON       FAIR      61  38  42 SW14G31   29.75F
KEMMERER         N/A     54  36  50 W9G17     29.79S
FORT BRIDGER   FAIR      62  37  39 NW5       29.79F
ROCK SPRINGS   FAIR      69  30  23 SW30G39   29.74F
DIXON          FAIR      75  25  16 SW29G38   29.82F
RAWLINS        FAIR      72  29  20 SW23G38   29.80S
SARATOGA       FAIR      72  23  16 S13G35    29.84F
LARAMIE        FAIR      75  16  10 SW22G40   29.86S
CHEYENNE       FAIR      80  17   9 S17G23    29.81S
TORRINGTON     FAIR      80  35  19 NE8       29.68F
PINE BLUFFS    FAIR      82  27  13 S7        29.76F

$$




USA.gov is the U.S. government's official web portal to all federal, state and local government web resources and services.